CAPE
0 0 0 0 0 0 0 0 0 0 0 0 0 0 0 0 0 0 0 0 7 0 86 587 1273 1304 1341 1593 2092 2363 2376 2723 2429 2126 1860 1345 1048 1016 860 704 616 435 246 115
0 0 0 0 0 0 0 0 0 0 0 0 0 0 0 0 0 0 0 0 0 0 18 575 1349 1765 1514 1519 1625 1971 2474 2872 2956 2401 2011 1500 1156 1043 892 731 412 348 234 8
0 0 0 0 0 0 0 0 0 0 0 0 0 0 0 0 0 0 0 8 0 0 87 1396 1913 2202 2170 1986 1862 1779 2098 2494 2829 2212 1828 1555 1415 1233 1000 701 437 178 3 0
0 0 0 0 0 0 0 0 0 0 0 0 0 0 0 0 0 0 0 60 26 193 302 1667 1852 1978 2240 2182 2158 2089 2222 2271 2402 1975 1737 1617 1355 1227 1049 791 455 23 0 0
0 0 0 0 0 0 0 0 0 0 0 0 0 0 0 3 0 0 4 81 222 203 400 688 1669 1767 2014 2049 2141 2095 2239 2203 1966 1983 1674 1654 1473 1268 1081 769 152 59 0 0
0 0 0 0 0 0 0 0 0 0 0 0 0 0 0 1 5 2 16 103 490 551 658 1043 1489 1732 1830 1842 1875 2032 2061 1968 1849 1752 1684 1665 1477 1332 771 332 169 0 0 0
0 0 0 0 0 0 0 0 0 0 0 0 0 0 0 0 0 0 0 0 28 446 640 1089 1609 1734 1486 1535 1799 1855 1867 1587 1506 1518 1475 1540 1307 875 733 257 1 0 0 0
0 0 0 0 0 0 0 0 0 0 0 4 5 0 0 0 0 0 0 0 0 0 253 675 1652 1374 1463 1616 1661 1709 1721 1121 1066 1047 1006 940 870 661 175 5 0 0 0 0
0 0 0 0 0 0 0 0 0 0 0 0 0 39 0 0 0 0 0 1 0 6 415 779 1427 1370 1410 1624 1655 1501 1448 1162 852 795 650 527 121 0 0 0 0 0 0 0
0 0 0 0 0 0 0 0 0 0 0 0 0 7 8 7 1 0 0 0 1 426 902 1007 1445 1462 1531 1662 1506 1293 1225 904 660 437 235 5 0 0 0 0 0 0 0 0
0 0 0 0 0 0 0 0 0 0 0 2 9 22 56 11 0 0 0 0 0 210 1076 1273 1629 1423 1439 1425 1050 1052 797 602 326 63 0 0 0 0 0 0 0 0 0 0
0 0 0 0 0 0 0 0 0 0 0 0 0 0 0 0 0 0 0 0 9 203 1113 1408 1665 1370 1497 1226 996 794 548 240 42 0 0 0 0 0 0 0 0 0 0 0
0 0 0 0 0 0 0 0 0 0 0 0 0 0 7 0 0 0 0 0 0 182 1113 1311 1600 1362 1554 1206 875 680 330 73 0 0 0 0 0 0 0 0 0 0 0 0
0 0 0 0 14 0 3 1 0 1 0 3 4 17 24 25 13 2 0 0 0 24 824 1417 1475 1332 1530 1184 824 444 140 3 0 0 0 0 0 0 0 0 0 0 0 0
0 0 0 0 0 0 0 0 0 1 8 27 39 34 84 51 21 34 25 13 0 0 645 1535 1507 1588 1569 1134 745 295 50 0 0 0 0 0 0 0 0 0 0 0 0 0
0 0 0 0 0 0 0 0 0 0 0 0 0 0 0 0 0 18 96 99 45 1 245 1061 1885 1696 1437 1080 674 251 12 0 0 0 0 0 0 0 0 0 0 0 0 0
0 0 0 0 0 0 0 0 0 0 0 0 0 0 0 0 1 98 248 541 297 134 82 898 1583 1965 1613 1239 645 181 1 0 0 0 0 0 0 0 0 0 0 0 0 0
0 0 0 0 0 0 0 0 0 0 0 0 0 0 0 0 4 142 831 996 1134 1256 394 733 1497 2064 1723 1089 516 130 2 0 0 0 0 0 0 0 0 0 0 0 0 0
0 0 0 0 0 0 0 0 0 0 0 0 0 0 37 126 85 513 441 476 971 1172 1251 1216 1577 1934 1792 943 380 77 2 0 0 0 0 0 0 0 0 0 0 0 0 1
0 0 0 0 0 0 0 0 0 0 0 3 0 14 66 157 71 303 290 394 802 1204 1356 1548 1785 1915 1613 597 222 30 2 0 0 0 0 0 0 0 0 0 0 0 0 0
0 0 0 0 0 0 0 0 2 0 100 1 0 69 111 119 149 154 95 268 637 1082 1291 1468 1712 1837 947 369 155 82 20 1 0 0 0 0 0 0 0 0 0 0 0 0
6 5 2 0 0 0 0 0 0 62 6 0 0 0 0 0 0 0 0 88 449 921 1278 1325 1646 1098 587 261 227 101 28 2 0 0 0 0 0 0 0 0 0 0 0 0
0 0 2 0 2 10 45 95 10 0 0 0 0 0 0 0 0 0 0 15 418 871 1090 1246 913 638 457 259 258 69 1 0 0 0 0 0 0 0 0 0 0 0 0 0
0 1 0 0 0 0 9 25 17 0 0 0 0 0 0 0 0 0 0 0 256 718 956 840 592 360 358 129 105 0 0 0 0 0 0 0 0 0 0 0 0 0 0 0
0 0 0 0 0 0 0 0 0 0 0 0 0 0 0 0 0 0 0 0 84 693 744 477 311 124 93 2 0 0 0 0 0 0 0 0 0 0 0 0 0 0 0 0
0 0 0 0 0 0 0 0 0 0 0 0 0 0 0 0 0 0 0 0 77 724 488 169 60 1 1 0 0 0 0 0 0 0 0 0 0 0 0 0 0 0 0 0
CIN
0 0 0 0 0 0 0 0 0 0 0 0 0 0 0 0 0 0 0 0 -4 0 -5 -26 -64 -85 -98 -90 -85 -90 -71 -61 -59 -80 -94 -100 -114 -106 -116 -118 -166 -169 -175 -167
0 0 0 0 0 0 0 0 0 0 0 0 0 0 0 0 0 0 0 0 0 0 -6 -18 -82 -126 -145 -145 -146 -136 -93 -68 -74 -82 -90 -83 -99 -86 -104 -130 -216 -179 -167 -40
0 0 0 0 0 0 0 0 0 0 0 0 0 0 0 0 0 0 0 -14 0 0 -15 -71 -145 -174 -172 -169 -175 -189 -179 -121 -104 -108 -131 -134 -85 -83 -106 -143 -177 -227 -73 0
0 0 0 0 0 0 0 0 0 0 0 0 0 0 0 0 0 0 0 -9 -24 -24 -21 -93 -160 -201 -199 -175 -171 -174 -172 -156 -136 -155 -140 -131 -115 -89 -92 -112 -148 -328 0 -1
0 0 0 0 0 0 0 0 0 0 0 0 0 0 0 -3 0 0 -3 -3 -20 -29 -57 -59 -112 -191 -211 -189 -190 -202 -182 -180 -185 -163 -146 -113 -80 -81 -84 -95 -273 -235 0 0
0 0 0 0 0 0 0 0 0 0 0 0 0 0 0 -2 -5 -10 -4 -7 -22 -28 -52 -66 -127 -193 -251 -250 -225 -213 -202 -191 -189 -171 -145 -97 -77 -77 -134 -202 -224 0 0 0
0 0 0 0 0 0 0 0 0 0 0 0 0 0 0 -2 0 0 0 0 -8 -32 -43 -79 -147 -308 -309 -253 -211 -207 -193 -218 -199 -173 -157 -122 -120 -156 -143 -240 -9 0 0 0
0 0 0 0 0 0 0 0 0 0 0 -6 -12 0 0 0 0 0 0 0 0 -6 -38 -50 -125 -269 -251 -196 -190 -174 -177 -282 -264 -242 -223 -204 -192 -195 -308 -14 0 0 0 0
0 0 0 0 0 0 0 0 0 0 0 0 0 -10 -2 0 0 0 0 -2 0 -60 -40 -28 -91 -247 -206 -161 -162 -173 -167 -217 -281 -271 -274 -289 -415 0 0 0 0 0 0 0
0 0 0 0 0 0 0 0 0 0 0 0 0 -3 -7 -7 -3 0 0 0 -1 -4 -32 -54 -120 -195 -148 -124 -163 -177 -183 -249 -306 -352 -402 -128 0 0 0 0 0 0 0 0
0 0 0 0 0 0 0 0 0 0 -1 -2 -4 -5 -9 -11 0 0 0 0 -1 -3 -39 -69 -125 -178 -129 -136 -207 -220 -269 -321 -406 -513 0 0 0 0 0 0 0 0 0 0
0 0 0 0 0 0 0 0 0 0 0 0 0 0 0 0 0 0 0 0 -4 -12 -30 -64 -122 -207 -134 -184 -222 -289 -348 -447 -548 0 0 0 0 0 0 0 0 0 0 0
0 0 0 0 0 0 0 0 0 0 0 0 0 0 -7 0 0 0 0 0 0 -5 -28 -57 -105 -217 -144 -207 -275 -326 -429 -533 0 0 0 0 0 0 0 0 0 0 0 0
0 0 0 0 -6 0 -38 -1 0 -2 0 -3 -4 -4 -6 -7 -7 -14 0 0 0 -6 -15 -60 -131 -212 -179 -235 -297 -385 -472 -136 0 0 0 0 0 0 0 0 0 0 0 0
0 0 0 0 0 0 0 0 0 -1 -5 -54 -23 -9 -5 -7 -37 -56 -50 -35 0 0 -17 -60 -153 -171 -183 -247 -288 -381 -474 0 0 0 0 -1 0 -1 0 0 0 0 0 0
0 0 0 0 0 0 0 0 0 0 0 0 0 0 0 0 0 -35 -4 -8 -9 -1 -8 -42 -93 -129 -161 -195 -270 -378 -361 0 0 0 0 0 0 0 0 0 0 0 0 0
0 0 0 0 0 0 0 0 0 0 0 0 0 0 0 0 -3 -5 -3 -8 -14 -9 -4 -22 -79 -115 -125 -166 -279 -423 -2 -1 0 0 0 0 0 0 0 0 0 0 0 0
0 0 0 0 0 0 0 0 0 0 0 0 0 0 0 0 -1 -4 -28 -67 -75 -44 -15 -14 -58 -67 -94 -197 -339 -472 -1 -1 0 0 0 0 0 0 0 0 0 0 0 -1
0 0 0 0 0 0 0 0 0 0 0 0 0 0 -33 -52 -62 -5 -94 -116 -130 -114 -83 -64 -54 -53 -80 -225 -370 -488 -1 0 0 0 0 0 0 0 0 0 0 0 -1 -1
0 0 0 0 0 0 0 0 0 0 0 -80 0 -149 -145 -116 -55 -7 -138 -135 -152 -143 -113 -84 -56 -46 -98 -294 -376 -451 -2 0 0 0 0 0 0 0 0 0 0 0 0 0
0 0 0 0 0 0 0 0 -2 0 -45 -42 0 -112 -137 -160 -164 -243 -230 -176 -136 -146 -135 -114 -64 -57 -224 -356 -380 -352 -434 -1 -1 0 0 0 0 0 0 0 0 0 0 0
-3 -4 -4 0 0 0 0 0 0 -31 -46 0 0 -2 0 0 0 0 -8 -230 -130 -125 -94 -104 -67 -175 -318 -376 -295 -290 -344 -58 0 0 0 0 0 0 0 0 0 0 0 -1
0 0 -5 0 -4 -4 -9 -12 -6 0 0 0 0 0 0 0 0 0 0 -96 -96 -77 -81 -57 -178 -292 -291 -297 -245 -307 -26 0 0 0 0 0 0 0 0 0 0 0 0 0
0 -6 -1 -1 0 0 -2 -4 -5 0 0 0 0 0 0 0 0 0 0 0 -120 -55 -70 -90 -240 -311 -250 -294 -263 -1 0 0 0 0 0 0 0 0 0 0 0 0 0 0
0 -2 0 0 0 0 0 0 0 0 0 0 0 0 0 0 0 0 0 0 -174 -41 -75 -171 -248 -291 -280 -115 0 0 0 0 0 0 0 0 0 0 0 0 0 0 0 0
0 0 0 0 0 0 0 0 0 0 0 0 0 0 0 0 0 0 0 0 -170 -28 -92 -253 -319 -10 -1 -1 0 0 0 0 0 0 0 0 0 0 0 0 0 0 0 0
Wind_Speed
6 9 7 9 5 21 24 18 15 15 10 9 20 31 33 34 34 37 19 29 14 30 5 6 6 6 6 6 5 6 5 3 3 3 2 2 3 4 6 8 13 14 13 14
11 14 18 14 19 18 15 15 11 11 7 14 22 30 32 32 33 34 35 34 34 31 6 5 6 7 7 6 5 5 4 3 2 1 2 4 5 5 7 9 12 12 13 14
16 21 16 17 16 16 15 18 20 21 21 7 11 28 29 25 26 28 30 30 31 10 5 4 4 4 5 6 6 5 5 4 3 4 5 7 8 8 8 10 11 12 13 15
18 21 16 17 16 17 19 15 19 21 15 23 13 10 25 2 5 6 24 18 16 8 1 4 4 7 8 7 7 6 4 4 4 3 4 5 6 7 8 9 12 14 14 15
19 17 20 17 19 18 22 22 23 20 21 30 30 15 27 11 14 14 12 13 17 16 8 6 5 5 4 7 9 7 5 3 3 1 4 4 6 8 10 12 15 14 15 17
24 24 19 20 19 17 22 23 21 21 19 17 7 21 34 13 7 7 15 14 16 19 15 14 9 9 10 10 8 7 5 5 3 2 4 4 8 9 10 12 13 14 15 18
14 17 16 16 20 14 15 16 23 19 17 23 14 10 14 24 23 19 20 23 15 15 19 16 13 16 12 7 7 6 5 6 5 4 6 9 8 9 11 12 14 16 18 20
19 18 9 9 14 22 11 17 23 30 28 29 9 18 21 18 26 20 24 25 23 22 18 15 14 16 12 9 7 6 6 6 6 6 7 8 8 10 12 13 16 17 20 21
16 15 15 17 20 13 21 26 22 31 32 34 31 16 12 11 13 21 19 16 21 21 20 15 12 13 11 8 7 6 4 3 4 6 8 8 9 11 13 15 16 18 20 21
11 10 13 10 15 15 18 18 21 21 29 32 27 23 24 11 13 17 19 20 23 16 18 12 10 9 6 5 5 4 2 2 4 6 7 8 9 12 13 15 17 19 20 21
12 10 12 7 10 17 13 16 20 27 29 32 31 23 18 18 19 22 25 26 28 22 18 13 9 7 2 3 3 2 2 3 4 6 7 8 9 11 13 16 17 19 19 19
14 15 9 6 8 9 13 27 17 22 25 23 30 36 35 29 23 27 32 28 28 23 19 12 6 4 2 2 0 1 3 4 4 4 5 8 10 11 14 16 17 18 19 19
18 14 18 12 8 9 12 13 17 22 29 31 34 34 28 24 26 26 29 34 36 21 18 13 6 4 1 1 1 3 3 3 3 3 6 8 11 12 14 17 18 19 20 21
22 21 19 22 26 22 21 9 13 15 21 26 28 31 26 27 28 30 34 35 34 29 19 14 9 5 2 3 3 3 4 4 4 3 6 10 9 11 13 15 17 18 19 21
23 26 25 28 34 32 27 25 28 23 20 27 36 39 36 33 35 36 37 36 33 27 20 13 10 5 4 4 5 4 4 3 4 5 7 7 9 12 15 16 18 19 19 21
24 32 32 36 35 35 37 33 34 35 31 39 38 44 28 28 33 36 36 38 35 25 19 15 10 7 6 5 5 3 3 3 4 3 5 8 10 12 15 17 18 19 20 21
30 31 32 37 36 37 36 31 29 35 39 39 35 34 32 30 31 28 33 35 34 31 31 15 11 9 8 7 5 3 1 2 2 4 5 7 11 14 16 17 18 21 21 24
30 29 32 40 36 35 34 32 34 35 35 29 33 33 30 25 22 24 26 31 31 32 27 19 13 10 9 6 4 2 1 1 2 5 7 9 12 16 18 19 20 21 22 23
26 28 33 36 35 37 33 31 29 29 31 27 28 27 27 29 27 18 27 30 30 31 30 27 13 8 7 6 4 3 3 3 4 6 8 10 14 18 20 22 22 23 24 24
24 24 31 33 36 41 35 28 24 31 28 22 24 25 28 29 28 23 33 33 31 31 29 24 15 8 6 6 5 5 4 4 6 8 10 12 16 19 20 22 24 24 24 23
24 25 29 31 35 36 29 29 26 28 19 21 26 26 27 28 30 35 35 34 31 30 28 24 16 9 5 3 5 6 4 5 7 9 11 15 17 19 20 22 23 24 23 24
27 26 28 28 33 40 28 28 28 23 23 26 29 27 29 30 33 33 33 34 33 30 27 20 13 8 6 3 2 2 4 8 8 10 14 17 18 19 22 23 24 24 23 23
33 32 32 30 27 20 21 24 20 25 30 33 30 30 32 35 35 34 34 33 32 29 26 21 9 8 6 3 2 3 6 7 9 12 16 18 19 21 22 23 23 23 23 25
35 27 34 36 34 36 35 30 31 32 35 34 34 36 38 40 39 38 36 36 34 29 24 17 7 7 6 4 4 4 5 5 10 14 17 18 19 22 22 23 23 25 27 28
36 36 37 42 38 39 41 40 41 38 35 39 42 42 42 42 42 40 39 38 36 30 20 11 8 8 5 5 5 5 6 9 12 15 17 19 19 20 21 20 23 24 24 25
34 40 43 47 42 44 43 41 42 44 43 44 45 46 44 43 43 43 42 38 36 23 16 12 9 6 4 3 4 5 7 11 15 17 18 20 21 22 22 24 26 23 21 22
Wind_Direction
333 312 295 305 302 297 310 322 336 339 347 359 222 241 243 242 243 248 300 224 212 273 226 215 210 205 195 184 180 176 169 150 153 139 73 26 6 9 2 4 358 354 355 356
320 302 297 306 301 304 312 318 326 333 344 211 227 241 242 239 241 233 265 275 265 275 240 223 233 255 249 230 220 209 206 210 206 300 348 358 2 5 0 2 357 359 1 3
296 313 315 303 300 302 305 306 310 315 315 228 213 242 238 225 217 273 264 271 261 289 185 167 253 247 244 229 231 237 236 240 262 309 341 353 0 3 1 359 358 3 4 1
300 300 312 305 300 298 300 312 312 311 319 306 209 328 262 329 334 340 274 297 286 310 160 189 265 278 276 275 283 286 280 271 280 288 329 341 349 347 351 356 359 1 360 1
296 306 299 299 300 301 294 304 306 309 307 292 238 315 290 338 315 314 318 316 291 289 300 292 294 297 304 301 297 299 301 295 301 282 334 352 352 357 2 1 350 354 2 1
292 301 306 303 306 299 298 303 305 304 305 299 285 296 261 318 325 336 324 330 306 292 298 298 311 308 309 307 309 314 314 315 322 320 333 348 344 355 355 356 355 357 358 357
305 300 302 306 303 315 302 303 302 300 299 302 308 289 294 287 305 311 309 304 323 311 300 298 295 300 300 295 308 318 319 320 326 329 336 341 348 347 351 357 354 354 353 351
317 310 296 302 300 292 302 300 294 292 295 299 313 302 305 299 293 310 304 306 309 308 306 301 296 299 297 293 302 314 322 320 321 330 336 345 355 353 355 354 354 352 352 351
336 323 329 315 305 298 293 286 299 292 291 289 288 321 339 330 325 309 314 325 322 319 311 308 304 305 293 291 299 313 323 340 334 335 340 349 352 352 355 358 356 354 353 351
325 319 330 342 323 308 298 298 296 295 291 289 295 299 309 325 330 328 324 326 329 338 328 328 322 317 302 300 311 321 359 6 348 339 344 350 349 350 356 358 356 354 353 352
317 322 331 341 322 308 318 298 296 295 293 292 294 301 325 323 315 315 312 313 321 332 330 330 329 333 320 312 309 312 346 351 341 339 346 348 348 352 355 355 354 353 354 354
317 319 309 285 311 319 307 294 303 295 297 298 291 285 289 314 314 303 303 306 315 327 326 335 341 344 312 315 309 303 318 326 340 344 352 342 350 354 353 353 353 355 351 353
311 313 308 308 303 299 299 300 300 295 293 291 291 293 306 315 315 311 304 300 297 325 322 323 326 336 261 240 261 298 309 327 344 14 5 359 352 354 353 351 354 351 351 350
299 294 295 296 300 320 321 321 308 304 298 297 296 300 308 310 314 311 303 301 298 308 323 315 309 307 246 264 251 289 307 323 346 14 4 347 6 1 0 359 358 354 352 351
293 287 287 288 287 294 298 299 296 301 305 297 292 289 298 305 306 304 297 301 301 306 312 312 301 283 264 272 281 290 301 324 334 346 352 22 7 360 357 355 355 353 353 352
293 287 286 284 286 287 288 289 289 289 295 290 293 282 308 310 304 299 301 298 300 304 311 308 300 289 287 280 288 274 280 311 328 346 0 1 5 360 357 355 354 353 353 353
289 289 288 283 285 288 280 285 287 289 288 288 292 298 303 304 305 312 313 303 297 297 298 304 295 289 280 279 279 273 283 329 345 344 354 2 359 353 354 355 356 353 354 352
284 287 287 285 287 275 290 292 287 287 294 296 294 295 301 303 308 317 329 318 309 306 308 311 299 293 289 281 262 274 280 16 16 352 351 356 356 351 354 354 354 354 353 352
276 281 285 282 281 285 287 293 298 294 289 301 300 300 301 306 309 322 328 322 315 307 306 307 309 295 287 285 273 261 285 321 347 348 350 354 353 349 349 350 352 352 352 352
274 273 277 281 282 284 295 297 309 302 277 301 302 303 301 302 296 290 316 316 319 314 310 311 318 315 302 289 284 286 294 319 333 349 353 355 353 351 351 353 351 353 353 354
282 275 273 278 280 285 295 299 308 291 297 308 306 303 305 303 300 293 303 307 314 312 312 311 316 322 332 319 293 281 305 324 338 355 357 356 357 356 355 353 354 354 356 356
281 280 280 280 281 280 292 293 289 301 308 307 304 304 300 301 298 298 301 302 304 306 310 317 323 336 357 8 334 307 322 337 351 357 353 356 356 358 357 355 354 357 358 358
276 279 282 283 285 304 304 300 306 304 299 297 298 300 297 293 294 293 293 297 302 303 305 312 328 336 338 348 13 11 348 350 350 355 353 353 358 356 358 357 359 1 2 360
282 286 280 284 282 282 291 294 293 296 297 295 295 294 292 289 287 288 290 291 297 302 304 311 332 334 327 336 344 356 27 33 348 351 354 1 359 357 359 1 3 3 1 1
283 287 284 281 285 286 283 287 288 289 292 289 286 287 286 285 281 283 285 286 289 296 304 312 314 322 326 343 7 26 21 9 354 354 355 356 360 2 4 7 5 5 7 6
285 282 279 278 283 283 284 289 288 288 285 287 284 281 281 281 279 277 274 280 283 298 300 305 305 305 325 349 28 26 14 7 349 348 352 352 357 3 7 7 7 12 12 9